This is the latest recevied weather packets stored in our database for station/object KN6CRX. If no packets are shown the sender has not sent any weather packets the latest 10 day(s).
| Time | Temp. | Humidity | Pressure | Rain* | Wind** | Luminosity | Snow |
|---|---|---|---|---|---|---|---|
| 1787869650 | 34.44° C | 21% | 1019 hPa | 0 mm | - | 620 W/m² | - |
| 1787869345 | 33.89° C | 21% | 1019.2 hPa | 0 mm | - | 636 W/m² | - |
| 1787869044 | 33.33° C | 21% | 1019.3 hPa | 0 mm | - | 648 W/m² | - |
| 1787868742 | 33.33° C | 21% | 1019.2 hPa | 0 mm | - | 671 W/m² | - |
| 1787868442 | 32.78° C | 24% | 1019.4 hPa | 0 mm | - | 697 W/m² | - |
| 1787868141 | 32.78° C | 23% | 1019.4 hPa | 0 mm | - | 742 W/m² | - |
| 1787867837 | 31.67° C | 23% | 1019.2 hPa | 0 mm | - | 533 W/m² | - |
| 1787867532 | 30.56° C | 27% | 1019.2 hPa | 0 mm | - | 397 W/m² | - |
| 1787867227 | 30.56° C | 28% | 1019.5 hPa | 0 mm | - | 285 W/m² | - |
| 1787866922 | 31.11° C | 27% | 1019.7 hPa | 0 mm | - | 187 W/m² | - |
| 1787866618 | 31.11° C | 26% | 1019.9 hPa | 0 mm | - | 192 W/m² | - |
| 1787866315 | 31.11° C | 26% | 1020.2 hPa | 0 mm | - | 211 W/m² | - |
| 1787866011 | 31.67° C | 26% | 1020.2 hPa | 0 mm | - | 231 W/m² | - |
| 1787865706 | 32.22° C | 25% | 1020.7 hPa | 0 mm | - | 323 W/m² | - |
| 1787865406 | 32.78° C | 27% | 1020.7 hPa | 0 mm | - | 512 W/m² | - |
| 1787865101 | 32.78° C | 27% | 1020.7 hPa | 0 mm | - | 568 W/m² | - |
| 1787864797 | 32.22° C | 27% | 1020.8 hPa | 0 mm | - | 644 W/m² | - |
| 1787864491 | 32.78° C | 28% | 1020.8 hPa | 0 mm | - | 292 W/m² | - |
| 1787864191 | 32.78° C | 27% | 1020.7 hPa | 0 mm | - | 409 W/m² | - |
| 1787863886 | 32.78° C | 27% | 1020.6 hPa | 0 mm | - | 809 W/m² | - |
| 1787863584 | 32.78° C | 26% | 1020.7 hPa | 0 mm | - | 651 W/m² | - |
| 1787863279 | 33.33° C | 24% | 1020.6 hPa | 0 mm | - | 448 W/m² | - |
| 1787862975 | 33.33° C | 25% | 1020.8 hPa | 0 mm | - | 438 W/m² | - |
| 1787862670 | 32.78° C | 24% | 1020.9 hPa | 0 mm | - | 679 W/m² | - |
| 1787862365 | 33.33° C | 24% | 1020.8 hPa | 0 mm | - | 601 W/m² | - |
* Rain latest hour (hover to see other rain measurements)
** Current wind speed in m/s (hover to see current wind gust speed)